Year,Month,Day,Hour,Minute,Value (Times are PST for temperature in C)
2018,09,25,00,00,10.80
2018,09,25,00,01,10.80
2018,09,25,00,02,10.80
2018,09,25,00,03,10.70
2018,09,25,00,04,10.70
2018,09,25,00,05,10.70
2018,09,25,00,06,10.70
2018,09,25,00,07,10.60
2018,09,25,00,08,10.60
2018,09,25,00,09,10.60
2018,09,25,00,10,10.60
2018,09,25,00,11,10.60
2018,09,25,00,12,10.60
2018,09,25,00,13,10.60
2018,09,25,00,14,10.60
2018,09,25,00,15,10.50
2018,09,25,00,16,10.50
2018,09,25,00,17,10.50
2018,09,25,00,18,10.50
2018,09,25,00,19,10.40
2018,09,25,00,20,10.40
2018,09,25,00,21,10.40
2018,09,25,00,22,10.40
2018,09,25,00,23,10.40
2018,09,25,00,24,10.40
2018,09,25,00,25,10.40
2018,09,25,00,26,10.30
2018,09,25,00,27,10.30
2018,09,25,00,28,10.30
2018,09,25,00,29,10.30
2018,09,25,00,30,10.30
2018,09,25,00,31,10.30
2018,09,25,00,32,10.30
2018,09,25,00,33,10.30
2018,09,25,00,34,10.30
2018,09,25,00,35,10.30
2018,09,25,00,36,10.30
2018,09,25,00,37,10.30
2018,09,25,00,38,10.40
2018,09,25,00,39,10.30
2018,09,25,00,40,10.30
2018,09,25,00,41,10.30
2018,09,25,00,42,10.30
2018,09,25,00,43,10.30
2018,09,25,00,44,10.30
2018,09,25,00,45,10.30
2018,09,25,00,46,10.20
2018,09,25,00,47,10.20
2018,09,25,00,48,10.20
2018,09,25,00,49,10.20
2018,09,25,00,50,10.20
2018,09,25,00,51,10.20
2018,09,25,00,52,10.20
2018,09,25,00,53,10.20
2018,09,25,00,54,10.20
2018,09,25,00,55,10.20
2018,09,25,00,56,10.20
2018,09,25,00,57,10.20
2018,09,25,00,58,10.20
2018,09,25,00,59,10.20
2018,09,25,01,00,10.20
2018,09,25,01,01,10.20
2018,09,25,01,02,10.20
2018,09,25,01,03,10.20
2018,09,25,01,04,10.20
2018,09,25,01,05,10.20
2018,09,25,01,06,10.20
2018,09,25,01,07,10.20
2018,09,25,01,08,10.10
2018,09,25,01,09,10.10
2018,09,25,01,10,10.10
2018,09,25,01,11,10.10
2018,09,25,01,12,10.10
2018,09,25,01,13,10.10
2018,09,25,01,14,10.10
2018,09,25,01,15,10.10
2018,09,25,01,16,10.10
2018,09,25,01,17,10.10
2018,09,25,01,18,10.10
2018,09,25,01,19,10.10
2018,09,25,01,20,10.10
2018,09,25,01,21,10.10
2018,09,25,01,22,10.10
2018,09,25,01,23,10.10
2018,09,25,01,24,10.10
2018,09,25,01,25,10.10
2018,09,25,01,26,10.10
2018,09,25,01,27,10.10
2018,09,25,01,28,10.00
2018,09,25,01,29,10.00
2018,09,25,01,30,10.00
2018,09,25,01,31,10.00
2018,09,25,01,32,10.00
2018,09,25,01,33,9.90
2018,09,25,01,34,9.90
2018,09,25,01,35,9.90
2018,09,25,01,36,9.90
2018,09,25,01,37,9.90
2018,09,25,01,38,9.90
2018,09,25,01,39,9.90
2018,09,25,01,40,9.90
2018,09,25,01,41,9.90
2018,09,25,01,42,9.90
2018,09,25,01,43,9.90
2018,09,25,01,44,9.90
2018,09,25,01,45,10.00
2018,09,25,01,46,10.00
2018,09,25,01,47,9.90
2018,09,25,01,48,9.90
2018,09,25,01,49,9.90
2018,09,25,01,50,9.90
2018,09,25,01,51,9.90
2018,09,25,01,52,9.90
2018,09,25,01,53,9.90
2018,09,25,01,54,9.90
2018,09,25,01,55,9.90
2018,09,25,01,56,9.90
2018,09,25,01,57,9.90
2018,09,25,01,58,9.90
2018,09,25,01,59,9.90
2018,09,25,02,00,9.90
2018,09,25,02,01,9.90
2018,09,25,02,02,9.90
2018,09,25,02,03,9.90
2018,09,25,02,04,9.90
2018,09,25,02,05,9.90
2018,09,25,02,06,9.90
2018,09,25,02,07,9.90
2018,09,25,02,08,9.90
2018,09,25,02,09,9.90
2018,09,25,02,10,9.90
2018,09,25,02,11,9.90
2018,09,25,02,12,9.90
2018,09,25,02,13,9.90
2018,09,25,02,14,9.90
2018,09,25,02,15,9.90
2018,09,25,02,16,9.90
2018,09,25,02,17,9.80
2018,09,25,02,18,9.80
2018,09,25,02,19,9.80
2018,09,25,02,20,9.80
2018,09,25,02,21,9.80
2018,09,25,02,22,9.80
2018,09,25,02,23,9.80
2018,09,25,02,24,9.80
2018,09,25,02,25,9.70
2018,09,25,02,26,9.70
2018,09,25,02,27,9.70
2018,09,25,02,28,9.70
2018,09,25,02,29,9.60
2018,09,25,02,30,9.60
2018,09,25,02,31,9.60
2018,09,25,02,32,9.60
2018,09,25,02,33,9.60
2018,09,25,02,34,9.60
2018,09,25,02,35,9.60
2018,09,25,02,36,9.60
2018,09,25,02,37,9.60
2018,09,25,02,38,9.60
2018,09,25,02,39,9.60
2018,09,25,02,40,9.60
2018,09,25,02,41,9.60
2018,09,25,02,42,9.60
2018,09,25,02,43,9.60
2018,09,25,02,44,9.60
2018,09,25,02,45,9.50
2018,09,25,02,46,9.50
2018,09,25,02,47,9.50
2018,09,25,02,48,9.50
2018,09,25,02,49,9.50
2018,09,25,02,50,9.50
2018,09,25,02,51,9.50
2018,09,25,02,52,9.50
2018,09,25,02,53,9.40
2018,09,25,02,54,9.40
2018,09,25,02,55,9.40
2018,09,25,02,56,9.40
2018,09,25,02,57,9.40
2018,09,25,02,58,9.40
2018,09,25,02,59,9.40
2018,09,25,03,00,9.30
2018,09,25,03,01,9.30
2018,09,25,03,02,9.30
2018,09,25,03,03,9.30
2018,09,25,03,04,9.30
2018,09,25,03,05,9.30
2018,09,25,03,06,9.40
2018,09,25,03,07,9.40
2018,09,25,03,08,9.40
2018,09,25,03,09,9.40
2018,09,25,03,10,9.40
2018,09,25,03,11,9.40
2018,09,25,03,12,9.40
2018,09,25,03,13,9.40
2018,09,25,03,14,9.40
2018,09,25,03,15,9.40
2018,09,25,03,16,9.40
2018,09,25,03,17,9.50
2018,09,25,03,18,9.50
2018,09,25,03,19,9.50
2018,09,25,03,20,9.50
2018,09,25,03,21,9.60
2018,09,25,03,22,9.60
2018,09,25,03,23,9.60
2018,09,25,03,24,9.60
2018,09,25,03,25,9.60
2018,09,25,03,26,9.60
2018,09,25,03,27,9.60
2018,09,25,03,28,9.60
2018,09,25,03,29,9.60
2018,09,25,03,30,9.60
2018,09,25,03,31,9.60
2018,09,25,03,32,9.60
2018,09,25,03,33,9.60
2018,09,25,03,34,9.60
2018,09,25,03,35,9.60
2018,09,25,03,36,9.60
2018,09,25,03,37,9.60
2018,09,25,03,38,9.60
2018,09,25,03,39,9.60
2018,09,25,03,40,9.60
2018,09,25,03,41,9.70
2018,09,25,03,42,9.70
2018,09,25,03,43,9.70
2018,09,25,03,44,9.70
2018,09,25,03,45,9.70
2018,09,25,03,46,9.70
2018,09,25,03,47,9.70
2018,09,25,03,48,9.70
2018,09,25,03,49,9.70
2018,09,25,03,50,9.70
2018,09,25,03,51,9.70
2018,09,25,03,52,9.70
2018,09,25,03,53,9.70
2018,09,25,03,54,9.70
2018,09,25,03,55,9.70
2018,09,25,03,56,9.70
2018,09,25,03,57,9.70
2018,09,25,03,58,9.70
2018,09,25,03,59,9.70
2018,09,25,04,00,9.70
2018,09,25,04,01,9.70
2018,09,25,04,02,9.70
2018,09,25,04,03,9.70
2018,09,25,04,04,9.70
2018,09,25,04,05,9.70
2018,09,25,04,06,9.70
2018,09,25,04,07,9.70
2018,09,25,04,08,9.70
2018,09,25,04,09,9.70
2018,09,25,04,10,9.70
2018,09,25,04,11,9.70
2018,09,25,04,12,9.70
2018,09,25,04,13,9.70
2018,09,25,04,14,9.70
2018,09,25,04,15,9.70
2018,09,25,04,16,9.70
2018,09,25,04,17,9.70
2018,09,25,04,18,9.70
2018,09,25,04,19,9.70
2018,09,25,04,20,9.70
2018,09,25,04,21,9.70
2018,09,25,04,22,9.70
2018,09,25,04,23,9.70
2018,09,25,04,24,9.70
2018,09,25,04,25,9.70
2018,09,25,04,26,9.70
2018,09,25,04,27,9.80
2018,09,25,04,28,9.80
2018,09,25,04,29,9.80
2018,09,25,04,30,9.80
2018,09,25,04,31,9.80
2018,09,25,04,32,9.80
2018,09,25,04,33,9.90
2018,09,25,04,34,9.90
2018,09,25,04,35,9.90
2018,09,25,04,36,9.90
2018,09,25,04,37,9.90
2018,09,25,04,38,9.90
2018,09,25,04,39,10.00
2018,09,25,04,40,10.00
2018,09,25,04,41,10.00
2018,09,25,04,42,10.00
2018,09,25,04,43,10.00
2018,09,25,04,44,10.00
2018,09,25,04,45,10.00
2018,09,25,04,46,10.00
2018,09,25,04,47,10.10
2018,09,25,04,48,10.10
2018,09,25,04,49,10.10
2018,09,25,04,50,10.10
2018,09,25,04,51,10.10
2018,09,25,04,52,10.10
2018,09,25,04,53,10.10
2018,09,25,04,54,10.10
2018,09,25,04,55,10.10
2018,09,25,04,56,10.10
2018,09,25,04,57,10.10
2018,09,25,04,58,10.00
2018,09,25,04,59,10.10
2018,09,25,05,00,10.00
2018,09,25,05,01,10.00
2018,09,25,05,02,10.00
2018,09,25,05,03,10.00
2018,09,25,05,04,10.00
2018,09,25,05,05,10.00
2018,09,25,05,06,10.00
2018,09,25,05,07,10.00
2018,09,25,05,08,10.00
2018,09,25,05,09,10.00
2018,09,25,05,10,10.00
2018,09,25,05,11,10.00
2018,09,25,05,12,10.00
2018,09,25,05,13,10.00
2018,09,25,05,14,10.00
2018,09,25,07,46,10.50
2018,09,25,07,47,10.50
2018,09,25,07,48,10.60
2018,09,25,07,49,10.60
2018,09,25,07,50,10.60
2018,09,25,07,51,10.60
2018,09,25,07,52,10.60
2018,09,25,07,53,10.70
2018,09,25,07,54,10.70
2018,09,25,07,55,10.70
2018,09,25,07,56,10.70
2018,09,25,07,57,10.70
2018,09,25,07,58,10.70
2018,09,25,07,59,10.80
2018,09,25,08,00,10.80
2018,09,25,08,01,10.80
2018,09,25,08,02,10.80
2018,09,25,08,03,10.80
2018,09,25,08,04,10.80
2018,09,25,08,05,10.80
2018,09,25,08,06,10.90
2018,09,25,08,07,10.90
2018,09,25,08,08,10.90
2018,09,25,08,09,10.90
2018,09,25,08,10,10.90
2018,09,25,08,11,10.90
2018,09,25,08,12,10.90
2018,09,25,08,13,10.90
2018,09,25,08,14,10.90
2018,09,25,08,15,11.00
2018,09,25,08,16,11.00
2018,09,25,08,17,11.00
2018,09,25,08,18,11.10
2018,09,25,08,19,11.10
2018,09,25,08,20,11.10
2018,09,25,08,21,11.10
2018,09,25,08,22,11.20
2018,09,25,08,23,11.20
2018,09,25,08,24,11.20
2018,09,25,08,25,11.20
2018,09,25,08,26,11.30
2018,09,25,08,27,11.30
2018,09,25,08,28,11.30
2018,09,25,08,29,11.30
2018,09,25,08,30,11.30
2018,09,25,08,31,11.40
2018,09,25,08,32,11.40
2018,09,25,08,33,11.40
2018,09,25,08,34,11.40
2018,09,25,08,35,11.50
2018,09,25,08,36,11.50
2018,09,25,08,37,11.60
2018,09,25,08,38,11.60
2018,09,25,08,39,11.60
2018,09,25,08,40,11.60
2018,09,25,08,41,11.70
2018,09,25,08,42,11.70
2018,09,25,08,43,11.70
2018,09,25,08,44,11.70
2018,09,25,08,45,11.80
2018,09,25,08,46,11.80
2018,09,25,08,47,11.80
2018,09,25,08,48,11.90
2018,09,25,08,49,11.90
2018,09,25,08,50,12.00
2018,09,25,08,51,12.00
2018,09,25,08,52,12.10
2018,09,25,08,53,12.10
2018,09,25,08,54,12.20
2018,09,25,08,55,12.20
2018,09,25,08,56,12.30
2018,09,25,08,57,12.30
2018,09,25,08,58,12.30
2018,09,25,08,59,12.30
2018,09,25,09,00,12.40
2018,09,25,09,01,12.60
2018,09,25,09,02,12.60
2018,09,25,09,03,12.60
2018,09,25,09,04,12.70
2018,09,25,09,05,12.70
2018,09,25,09,06,12.80
2018,09,25,09,07,12.80
2018,09,25,09,08,12.80
2018,09,25,09,09,12.90
2018,09,25,09,10,12.90
2018,09,25,09,11,13.00
2018,09,25,09,12,13.00
2018,09,25,09,13,13.10
2018,09,25,09,14,13.10
2018,09,25,09,15,13.20
2018,09,25,09,16,13.20
2018,09,25,09,17,13.30
2018,09,25,09,18,13.30
2018,09,25,09,19,13.30
2018,09,25,09,20,13.40
2018,09,25,09,21,13.40
2018,09,25,09,22,13.40
2018,09,25,09,23,13.40
2018,09,25,09,24,13.50
2018,09,25,09,25,13.50
2018,09,25,09,26,13.60
2018,09,25,09,27,13.60
2018,09,25,09,28,13.60
2018,09,25,09,29,13.60
2018,09,25,09,30,13.60
2018,09,25,09,31,13.70
2018,09,25,09,32,13.70
2018,09,25,09,33,13.70
2018,09,25,09,34,13.70
2018,09,25,09,35,13.80
2018,09,25,09,36,13.80
2018,09,25,09,37,13.80
2018,09,25,09,38,13.80
2018,09,25,09,39,13.80
2018,09,25,09,40,13.90
2018,09,25,09,41,13.90
2018,09,25,09,42,13.90
2018,09,25,09,43,13.90
2018,09,25,09,44,14.00
2018,09,25,09,45,14.00
2018,09,25,09,46,14.00
2018,09,25,09,47,14.00
2018,09,25,09,48,14.00
2018,09,25,09,49,14.00
2018,09,25,09,50,14.00
2018,09,25,09,51,14.00
2018,09,25,09,52,14.00
2018,09,25,09,53,14.10
2018,09,25,09,54,14.10
2018,09,25,09,55,14.10
2018,09,25,09,56,14.10
2018,09,25,09,57,14.10
2018,09,25,09,58,14.10
2018,09,25,09,59,14.10
2018,09,25,10,00,14.20
2018,09,25,10,01,14.20
2018,09,25,10,02,14.20
2018,09,25,10,03,14.20
2018,09,25,10,04,14.20
2018,09,25,10,05,14.20
2018,09,25,10,06,14.20
2018,09,25,10,07,14.30
2018,09,25,10,08,14.30
2018,09,25,10,09,14.30
2018,09,25,10,10,14.30
2018,09,25,10,11,14.30
2018,09,25,10,12,14.30
2018,09,25,10,13,14.30
2018,09,25,10,14,14.40
2018,09,25,10,15,14.40
2018,09,25,10,16,14.40
2018,09,25,10,17,14.40
2018,09,25,10,18,14.40
2018,09,25,10,19,14.40
2018,09,25,10,20,14.50
2018,09,25,10,21,14.50
2018,09,25,10,22,14.50
2018,09,25,10,23,14.60
2018,09,25,10,24,14.60
2018,09,25,10,25,14.70
2018,09,25,10,26,14.70
2018,09,25,10,27,14.70
2018,09,25,10,28,14.80
2018,09,25,10,29,14.80
2018,09,25,10,30,14.80
2018,09,25,10,31,14.80
2018,09,25,10,32,14.80
2018,09,25,10,33,14.90
2018,09,25,10,34,14.90
2018,09,25,10,35,14.90
2018,09,25,10,36,14.90
2018,09,25,10,37,14.90
2018,09,25,10,38,15.00
2018,09,25,10,39,15.00
2018,09,25,10,40,15.00
2018,09,25,10,41,15.00
2018,09,25,10,42,15.00
2018,09,25,10,43,15.00
2018,09,25,10,44,15.00
2018,09,25,10,45,15.00
2018,09,25,10,46,15.10
2018,09,25,10,47,15.10
2018,09,25,10,48,15.10
2018,09,25,10,49,15.10
2018,09,25,10,50,15.10
2018,09,25,10,51,15.10
2018,09,25,10,52,15.10
2018,09,25,10,53,15.10
2018,09,25,10,54,15.10
2018,09,25,10,55,15.10
2018,09,25,10,56,15.10
2018,09,25,10,57,15.20
2018,09,25,10,58,15.20
2018,09,25,10,59,15.20
2018,09,25,11,00,15.20
2018,09,25,11,01,15.20
2018,09,25,11,02,15.20
2018,09,25,11,03,15.20
2018,09,25,11,04,15.20
2018,09,25,11,05,15.20
2018,09,25,11,06,15.20
2018,09,25,11,07,15.20
2018,09,25,11,08,15.20
2018,09,25,11,09,15.20
2018,09,25,11,10,15.20
2018,09,25,11,11,15.20
2018,09,25,11,12,15.20
2018,09,25,11,13,15.20
2018,09,25,11,14,15.20
2018,09,25,11,15,15.20
2018,09,25,11,16,15.30
2018,09,25,11,17,15.30
2018,09,25,11,18,15.30
2018,09,25,11,19,15.30
2018,09,25,11,20,15.30
2018,09,25,11,21,15.30
2018,09,25,11,22,15.40
2018,09,25,11,23,15.40
2018,09,25,11,24,15.40
2018,09,25,11,25,15.40
2018,09,25,11,26,15.40
2018,09,25,11,27,15.40
2018,09,25,11,28,15.40
2018,09,25,11,29,15.40
2018,09,25,11,30,15.40
2018,09,25,11,31,15.40
2018,09,25,11,32,15.40
2018,09,25,11,33,15.50
2018,09,25,11,34,15.50
2018,09,25,11,35,15.60
2018,09,25,11,36,15.60
2018,09,25,11,37,15.60
2018,09,25,11,38,15.60
2018,09,25,11,39,15.60
2018,09,25,11,40,15.50
2018,09,25,11,41,15.60
2018,09,25,11,42,15.60
2018,09,25,11,43,15.60
2018,09,25,11,44,15.60
2018,09,25,11,45,15.60
2018,09,25,11,46,15.60
2018,09,25,11,47,15.70
2018,09,25,11,48,15.70
2018,09,25,11,49,15.70
2018,09,25,11,50,15.70
2018,09,25,11,51,15.70
2018,09,25,11,52,15.70
2018,09,25,11,53,15.70
2018,09,25,11,54,15.70
2018,09,25,11,55,15.70
2018,09,25,11,56,15.70
2018,09,25,11,57,15.70
2018,09,25,11,58,15.70
2018,09,25,11,59,15.70
2018,09,25,12,00,15.80
2018,09,25,12,01,15.80
2018,09,25,12,02,15.80
2018,09,25,12,03,15.80
2018,09,25,12,04,15.90
2018,09,25,12,05,15.90
2018,09,25,12,06,15.90
2018,09,25,12,07,16.00
2018,09,25,12,08,16.00
2018,09,25,12,09,16.10
2018,09,25,12,10,16.10
2018,09,25,12,11,16.00
2018,09,25,12,12,16.00
2018,09,25,12,13,16.00
2018,09,25,12,14,16.10
2018,09,25,12,15,16.10
2018,09,25,12,16,16.00
2018,09,25,12,17,16.00
2018,09,25,12,18,16.00
2018,09,25,12,19,16.00
2018,09,25,12,20,16.00
2018,09,25,12,21,15.90
2018,09,25,12,22,15.90
2018,09,25,12,23,16.00
2018,09,25,12,24,15.90
2018,09,25,12,25,15.90
2018,09,25,12,26,15.90
2018,09,25,12,27,15.90
2018,09,25,12,28,16.00
2018,09,25,12,29,16.00
2018,09,25,12,30,16.00
2018,09,25,12,31,16.00
2018,09,25,12,32,16.00
2018,09,25,12,33,16.00
2018,09,25,12,34,16.00
2018,09,25,12,35,16.00
2018,09,25,12,36,16.10
2018,09,25,12,37,16.10
2018,09,25,12,38,16.10
2018,09,25,12,39,16.10
2018,09,25,12,40,16.10
2018,09,25,12,41,16.10
2018,09,25,12,42,16.10
2018,09,25,12,43,16.10
2018,09,25,12,44,16.20
2018,09,25,12,45,16.20
2018,09,25,12,46,16.20
2018,09,25,12,47,16.30
2018,09,25,12,48,16.30
2018,09,25,12,49,16.30
2018,09,25,12,50,16.30
2018,09,25,12,51,16.30
2018,09,25,12,52,16.30
2018,09,25,12,53,16.30
2018,09,25,12,54,16.30
2018,09,25,12,55,16.30
2018,09,25,12,56,16.30
2018,09,25,12,57,16.40
2018,09,25,12,58,16.40
2018,09,25,12,59,16.40
2018,09,25,13,00,16.40
2018,09,25,13,01,16.40
2018,09,25,13,02,16.40
2018,09,25,13,03,16.40
2018,09,25,13,04,16.40
2018,09,25,13,05,16.40
2018,09,25,13,06,16.40
2018,09,25,13,07,16.40
2018,09,25,13,08,16.40
2018,09,25,13,09,16.40
2018,09,25,13,10,16.40
2018,09,25,13,11,16.50
2018,09,25,13,12,16.50
2018,09,25,13,13,16.50
2018,09,25,13,14,16.60
2018,09,25,13,15,16.60
2018,09,25,13,16,16.70
2018,09,25,13,17,16.70
2018,09,25,13,18,16.70
2018,09,25,13,19,16.70
2018,09,25,13,20,16.70
2018,09,25,13,21,16.70
2018,09,25,13,22,16.70
2018,09,25,13,23,16.70
2018,09,25,13,24,16.80
2018,09,25,13,25,16.80
2018,09,25,13,26,16.80
2018,09,25,13,27,16.80
2018,09,25,13,28,16.80
2018,09,25,13,29,16.80
2018,09,25,13,30,16.90
2018,09,25,13,31,16.90
2018,09,25,13,32,17.00
2018,09,25,13,33,17.00
2018,09,25,13,34,17.00
2018,09,25,13,35,17.00
2018,09,25,13,36,17.00
2018,09,25,13,37,17.00
2018,09,25,13,38,17.00
2018,09,25,13,39,17.00
2018,09,25,13,40,17.00
2018,09,25,13,41,17.10
2018,09,25,13,42,17.10
2018,09,25,13,43,17.10
2018,09,25,13,44,17.10
2018,09,25,13,45,17.10
2018,09,25,13,46,17.10
2018,09,25,13,47,17.10
2018,09,25,13,48,17.10
2018,09,25,13,49,17.20
2018,09,25,13,50,17.20
2018,09,25,13,51,17.20
2018,09,25,13,52,17.20
2018,09,25,13,53,17.20
2018,09,25,13,54,17.20
2018,09,25,13,55,17.30
2018,09,25,13,56,17.30
2018,09,25,13,57,17.30
2018,09,25,13,58,17.30
2018,09,25,13,59,17.30
2018,09,25,14,00,17.30
2018,09,25,14,01,17.30
2018,09,25,14,02,17.30
2018,09,25,14,03,17.30
2018,09,25,14,04,17.40
2018,09,25,14,05,17.40
2018,09,25,14,06,17.40
2018,09,25,14,07,17.40
2018,09,25,14,08,17.50
2018,09,25,14,09,17.50
2018,09,25,14,10,17.50
2018,09,25,14,11,17.50
2018,09,25,14,12,17.50
2018,09,25,14,13,17.50
2018,09,25,14,14,17.50
2018,09,25,14,15,17.50
2018,09,25,14,16,17.50
2018,09,25,14,17,17.50
2018,09,25,14,18,17.40
2018,09,25,14,19,17.40
2018,09,25,14,20,17.40
2018,09,25,14,21,17.40
2018,09,25,14,22,17.40
2018,09,25,14,23,17.40
2018,09,25,14,24,17.40
2018,09,25,14,25,17.40
2018,09,25,14,26,17.50
2018,09,25,14,27,17.50
2018,09,25,14,28,17.50
2018,09,25,14,29,17.50
2018,09,25,14,30,17.60
2018,09,25,14,31,17.60
2018,09,25,14,32,17.60
2018,09,25,14,33,17.60
2018,09,25,14,34,17.50
2018,09,25,14,35,17.50
2018,09,25,14,36,17.50
2018,09,25,14,37,17.40
2018,09,25,14,38,17.40
2018,09,25,14,39,17.40
2018,09,25,14,40,17.40
2018,09,25,14,41,17.40
2018,09,25,14,42,17.50
2018,09,25,14,43,17.50
2018,09,25,14,44,17.50
2018,09,25,14,45,17.50
2018,09,25,14,46,17.50
2018,09,25,14,47,17.50
2018,09,25,14,48,17.40
2018,09,25,14,49,17.40
2018,09,25,14,50,17.50
2018,09,25,14,51,17.50
2018,09,25,14,52,17.50
2018,09,25,14,53,17.60
2018,09,25,14,54,17.60
2018,09,25,14,55,17.60
2018,09,25,14,56,17.70
2018,09,25,14,57,17.70
2018,09,25,14,58,17.70
2018,09,25,14,59,17.70
2018,09,25,15,00,17.70
2018,09,25,15,01,17.70
2018,09,25,15,02,17.60
2018,09,25,15,03,17.60
2018,09,25,15,04,17.60
2018,09,25,15,05,17.60
2018,09,25,15,06,17.60
2018,09,25,15,07,17.60
2018,09,25,15,08,17.60
2018,09,25,15,09,17.60
2018,09,25,15,10,17.60
2018,09,25,15,11,17.60
2018,09,25,15,12,17.60
2018,09,25,15,13,17.60
2018,09,25,15,14,17.60
2018,09,25,15,15,17.60
2018,09,25,15,16,17.50
2018,09,25,15,17,17.50
2018,09,25,15,18,17.50
2018,09,25,15,19,17.50
2018,09,25,15,20,17.50
2018,09,25,15,21,17.50
2018,09,25,15,22,17.50
2018,09,25,15,23,17.60
2018,09,25,15,24,17.60
2018,09,25,15,25,17.70
2018,09,25,15,26,17.70
2018,09,25,15,27,17.80
2018,09,25,15,28,17.80
2018,09,25,15,29,17.80
2018,09,25,15,30,17.80
2018,09,25,15,31,17.80
2018,09,25,15,32,17.90
2018,09,25,15,33,17.90
2018,09,25,15,34,17.90
2018,09,25,15,35,17.90
2018,09,25,15,36,17.90
2018,09,25,15,37,17.90
2018,09,25,15,38,17.90
2018,09,25,15,39,17.90
2018,09,25,15,40,17.90
2018,09,25,15,41,17.90
2018,09,25,15,42,18.00
2018,09,25,15,43,18.00
2018,09,25,15,44,18.00
2018,09,25,15,45,18.00
2018,09,25,15,46,18.00
2018,09,25,15,47,18.10
2018,09,25,15,48,18.10
2018,09,25,15,49,18.00
2018,09,25,15,50,17.90
2018,09,25,15,51,17.90
2018,09,25,15,52,17.90
2018,09,25,15,53,17.90
2018,09,25,15,54,17.90
2018,09,25,15,55,17.90
2018,09,25,15,56,18.00
2018,09,25,15,57,18.00
2018,09,25,15,58,18.00
2018,09,25,15,59,18.00
2018,09,25,16,00,18.00
2018,09,25,16,01,18.00
2018,09,25,16,02,18.00
2018,09,25,16,03,18.00
2018,09,25,16,04,18.00
2018,09,25,16,05,18.00
2018,09,25,16,06,18.00
2018,09,25,16,07,18.00
2018,09,25,16,08,17.90
2018,09,25,16,09,17.90
2018,09,25,16,10,17.90
2018,09,25,16,11,17.90
2018,09,25,16,12,17.80
2018,09,25,16,13,17.80
2018,09,25,16,14,17.80
2018,09,25,16,15,17.80
2018,09,25,16,16,17.80
2018,09,25,16,17,17.80
2018,09,25,16,18,17.80
2018,09,25,16,19,17.80
2018,09,25,16,20,17.80
2018,09,25,16,21,17.80
2018,09,25,16,22,17.80
2018,09,25,16,23,17.90
2018,09,25,16,24,17.90
2018,09,25,16,25,17.90
2018,09,25,16,26,17.90
2018,09,25,16,27,17.90
2018,09,25,16,28,17.90
2018,09,25,16,29,17.90
2018,09,25,16,30,17.90
2018,09,25,16,31,17.90
2018,09,25,16,32,17.90
2018,09,25,16,33,17.90
2018,09,25,16,34,17.90
2018,09,25,16,35,17.90
2018,09,25,16,36,17.90
2018,09,25,16,37,17.90
2018,09,25,16,38,17.90
2018,09,25,16,39,17.90
2018,09,25,16,40,17.90
2018,09,25,16,41,17.90
2018,09,25,16,42,18.00
2018,09,25,16,43,18.00
2018,09,25,16,44,18.00
2018,09,25,16,45,18.00
2018,09,25,16,46,18.10
2018,09,25,16,47,18.10
2018,09,25,16,48,18.10
2018,09,25,16,49,18.20
2018,09,25,16,50,18.20
2018,09,25,16,51,18.20
2018,09,25,16,52,18.20
2018,09,25,16,53,18.20
2018,09,25,16,54,18.20
2018,09,25,16,55,18.20
2018,09,25,16,56,18.20
2018,09,25,16,57,18.20
2018,09,25,16,58,18.20
2018,09,25,16,59,18.10
2018,09,25,17,00,18.10
2018,09,25,17,01,18.10
2018,09,25,17,02,18.10
2018,09,25,17,03,18.10
2018,09,25,17,04,18.00
2018,09,25,17,05,18.00
2018,09,25,17,06,18.00
2018,09,25,17,07,17.90
2018,09,25,17,08,17.90
2018,09,25,17,09,17.90
2018,09,25,17,10,17.90
2018,09,25,17,11,17.90
2018,09,25,17,12,17.90
2018,09,25,17,13,17.90
2018,09,25,17,14,17.90
2018,09,25,17,15,17.90
2018,09,25,17,16,17.90
2018,09,25,17,17,17.80
2018,09,25,17,18,17.90
2018,09,25,17,19,17.90
2018,09,25,17,20,17.90
2018,09,25,17,21,17.90
2018,09,25,17,22,17.90
2018,09,25,17,23,17.90
2018,09,25,17,24,17.90
2018,09,25,17,25,17.90
2018,09,25,17,26,17.90
2018,09,25,17,27,18.00
2018,09,25,17,28,18.00
2018,09,25,17,29,18.00
2018,09,25,17,30,18.00
2018,09,25,17,31,18.00
2018,09,25,17,32,18.00
2018,09,25,17,33,18.00
2018,09,25,17,34,17.90
2018,09,25,17,35,17.90
2018,09,25,17,36,17.90
2018,09,25,17,37,17.90
2018,09,25,17,38,17.90
2018,09,25,17,39,17.90
2018,09,25,17,40,17.90
2018,09,25,17,41,17.90
2018,09,25,17,42,17.90
2018,09,25,17,43,17.80
2018,09,25,17,44,17.80
2018,09,25,17,45,17.80
2018,09,25,17,46,17.80
2018,09,25,17,47,17.90
2018,09,25,17,48,17.80
2018,09,25,17,49,17.80
2018,09,25,17,50,17.80
2018,09,25,17,51,17.80
2018,09,25,17,52,17.80
2018,09,25,17,53,17.80
2018,09,25,17,54,17.70
2018,09,25,17,55,17.70
2018,09,25,17,56,17.70
2018,09,25,17,57,17.70
2018,09,25,17,58,17.70
2018,09,25,17,59,17.70
2018,09,25,18,00,17.70
2018,09,25,18,01,17.70
2018,09,25,18,02,17.70
2018,09,25,18,03,17.70
2018,09,25,18,04,17.60
2018,09,25,18,05,17.60
2018,09,25,18,06,17.60
2018,09,25,18,07,17.60
2018,09,25,18,08,17.60
2018,09,25,18,09,17.50
2018,09,25,18,10,17.50
2018,09,25,18,11,17.50
2018,09,25,18,12,17.40
2018,09,25,18,13,17.40
2018,09,25,18,14,17.40
2018,09,25,18,15,17.40
2018,09,25,18,16,17.40
2018,09,25,18,17,17.40
2018,09,25,18,18,17.30
2018,09,25,18,19,17.30
2018,09,25,18,20,17.30
2018,09,25,18,21,17.30
2018,09,25,18,22,17.30
2018,09,25,18,23,17.30
2018,09,25,18,24,17.30
2018,09,25,18,25,17.20
2018,09,25,18,26,17.20
2018,09,25,18,27,17.20
2018,09,25,18,28,17.20
2018,09,25,18,29,17.20
2018,09,25,18,30,17.20
2018,09,25,18,31,17.10
2018,09,25,18,32,17.10
2018,09,25,18,33,17.10
2018,09,25,18,34,17.10
2018,09,25,18,35,17.10
2018,09,25,18,36,17.10
2018,09,25,18,37,17.00
2018,09,25,18,38,17.00
2018,09,25,18,39,17.00
2018,09,25,18,40,16.90
2018,09,25,18,41,16.90
2018,09,25,18,42,16.90
2018,09,25,18,43,16.90
2018,09,25,18,44,16.80
2018,09,25,18,45,16.80
2018,09,25,18,46,16.80
2018,09,25,18,47,16.80
2018,09,25,18,48,16.80
2018,09,25,18,49,16.80
2018,09,25,18,50,16.80
2018,09,25,18,51,16.80
2018,09,25,18,52,16.70
2018,09,25,18,53,16.70
2018,09,25,18,54,16.70
2018,09,25,18,55,16.70
2018,09,25,18,56,16.70
2018,09,25,18,57,16.60
2018,09,25,18,58,16.60
2018,09,25,18,59,16.60
2018,09,25,19,00,16.60
2018,09,25,19,01,16.50
2018,09,25,19,02,16.50
2018,09,25,19,03,16.50
2018,09,25,19,04,16.40
2018,09,25,19,05,16.40
2018,09,25,19,06,16.30
2018,09,25,19,07,16.30
2018,09,25,19,08,16.30
2018,09,25,19,09,16.30
2018,09,25,19,10,16.30
2018,09,25,19,11,16.20
2018,09,25,19,12,16.20
2018,09,25,19,13,16.20
2018,09,25,19,14,16.20
2018,09,25,19,15,16.10
2018,09,25,19,16,16.10
2018,09,25,19,17,16.10
2018,09,25,19,18,16.10
2018,09,25,19,19,16.10
2018,09,25,19,20,16.00
2018,09,25,19,21,16.00
2018,09,25,19,22,16.00
2018,09,25,19,23,16.00
2018,09,25,19,24,15.90
2018,09,25,19,25,15.90
2018,09,25,19,26,15.90
2018,09,25,19,27,15.90
2018,09,25,19,28,15.90
2018,09,25,19,29,15.90
2018,09,25,19,30,15.80
2018,09,25,19,31,15.80
2018,09,25,19,32,15.70
2018,09,25,19,33,15.60
2018,09,25,19,34,15.60
2018,09,25,19,35,15.50
2018,09,25,19,36,15.40
2018,09,25,19,37,15.30
2018,09,25,19,38,15.20
2018,09,25,19,39,15.10
2018,09,25,19,40,15.10
2018,09,25,19,41,15.00
2018,09,25,19,42,15.00
2018,09,25,19,43,14.90
2018,09,25,19,44,14.90
2018,09,25,19,45,14.90
2018,09,25,19,46,14.80
2018,09,25,19,47,14.80
2018,09,25,19,48,14.80
2018,09,25,19,49,14.70
2018,09,25,19,50,14.70
2018,09,25,19,51,14.70
2018,09,25,19,52,14.60
2018,09,25,19,53,14.60
2018,09,25,19,54,14.50
2018,09,25,19,55,14.50
2018,09,25,19,56,14.50
2018,09,25,19,57,14.40
2018,09,25,19,58,14.40